Regional Weather Roundup
Issued by NWS

Home | Current Version | Previous Version | Graphics & Text | Print | Product List | Glossary On
Versions: 1 2 3 4 5 6 7 8 9 10 11 12 13 14 15 16 17 18 19 20 21 22 23 24 25 26 27
000
ASUS45 KBOU 230406
RWRCO

WEATHER ROUNDUP FOR COLORADO
NATIONAL WEATHER SERVICE DENVER/BOULDER CO
1000 PM MDT TUE APR 22 2014

NOTE: "FAIR" INDICATES FEW OR NO CLOUDS BELOW 12000 FEET WITH NO
SIGNIFICANT WEATHER AND/OR OBSTRUCTIONS TO VISIBILITY.

COZ001>005-013-030-031-230500-
...NORTHWEST COLORADO...

CITY           SKY/WX    TMP DP  RH WIND       PRES   REMARKS
CRAIG          CLOUDY    61  31  32 S20G25    29.70S
HAYDEN         CLOUDY    54  30  40 E8        29.75F
MEEKER         LGT RAIN  59  33  37 W13       29.73R
MOUNT WERNER   NOT AVBL
STEAMBOAT SPGS CLOUDY    56  26  31 SE9       29.76R
WALDEN         CLOUDY    43  30  61 SE8       29.82F
$$

COZ006>008-011-230500-
...WEST CENTRAL VALLEYS...

CITY           SKY/WX    TMP DP  RH WIND       PRES   REMARKS
GRAND JUNCTION MOCLDY    69  22  16 MISG      29.62S
MONTROSE       MOCLDY    63  31  30 SE8       29.76R
EAGLE          CLOUDY    55  34  44 S8        29.82R
RIFLE          CLOUDY    63  32  31 SE8       29.68S
DELTA          NOT AVBL
NUCLA          NOT AVBL
$$

COZ017>023-064>068-230500-
...SOUTHWEST COLORADO...

CITY           SKY/WX    TMP DP  RH WIND       PRES   REMARKS
DURANGO        CLOUDY    63  19  18 SW14      29.88R
CORTEZ         CLEAR     62  23  22 S13       29.83R
PAGOSA SPRINGS CLOUDY    61  18  19 SW12G20   29.94S
TELLURIDE      CLOUDY    54  21  28 S13G31    29.95S
WOLF CREEK PAS CLOUDY    36  23  60 SW37G53   30.11F
$$

COZ009-010-012-014-032>034-037-058>063-230500-
...CENTRAL COLORADO...

CITY           SKY/WX    TMP DP  RH WIND       PRES   REMARKS
ASPEN          CLOUDY    53  31  42 VRB5      29.85S
BUENA VISTA    MOCLDY    50  32  50 CALM      29.92R
COPPER MTN     MOCLDY    39  27  60 S23       30.07F
BERTHOUD PASS  FAIR      32  23  69 MISG      30.08F
COTTONWOOD PAS CLOUDY    46  32  57 W10       30.00S
GUNNISON       CLOUDY    48  30  49 N8        29.93S
KREMMLING      CLOUDY    50  32  50 CALM      29.83S
LEADVILLE      CLOUDY    41  26  55 CALM      29.97F
MONARCH PASS   CLOUDY    36  28  75 SW29G43   30.20S
SALIDA         MOCLDY    58  29  33 S12       29.97S
SUNLIGHT       CLOUDY    39  32  75 CALM      29.98R
WILKERSON PASS MOCLDY    37  28  70 S9G22     30.06F
$$

COZ069>075-230500-
...SAN LUIS VALLEY/SANGRE DE CRISTO MOUNTAINS...

CITY           SKY/WX    TMP DP  RH WIND       PRES   REMARKS
ALAMOSA        MOCLDY    57  30  35 SW24G37   29.93F
LA VETA PASS   CLOUDY    43  28  56 SW12G23   30.05S
SAGUACHE       CLOUDY    48  32  53 W7        29.96S
$$

COZ035-036-038>040-230500-
...NORTHERN COLORADO FRONT RANGE...

CITY           SKY/WX    TMP DP  RH WIND       PRES   REMARKS
DENVER INTL AP CLOUDY    63  36  36 S14       29.71S
DMNS CITY PARK   N/A     65  35  32 S7G16     29.70S
AURORA         MOCLDY    61  36  39 S10       29.73F
FRONT RANGE AP NOT AVBL
ERIE MUNI ARPT CLOUDY    56  42  60 SW3       29.68F
BOULDER MUN AP CLOUDY    63  32  31 SW6       29.68F
CENTENNIAL     CLOUDY    63  31  30 S12       29.75S
BROOMFIELD     MOCLDY    61  39  44 W3        29.72F
FORT COLLINS   CLOUDY    63  34  34 SW3       29.68F
LONGMONT       NOT AVBL
$$

COZ041-046-047-076>085-087-088-230500-
...PIKES PEAK/PALMER DIVIDE AND SOUTHERN FOOTHILLS...

CITY           SKY/WX    TMP DP  RH WIND       PRES   REMARKS
COLO. SPRINGS  CLOUDY    60  33  36 S12       29.80F
A. F. ACADEMY  MOCLDY    59  30  32 SE7       29.81S
ELLICOTT       NOT AVBL
FALCON         CLOUDY    57  31  38 S7        29.84F
FORT CARSON    MOCLDY    61  31  33 SW7       29.77F
LIMON          MOCLDY    61  41  47 S17G23    29.76S
MONUMENT HILL  CLOUDY    50  32  50 S12       29.82F
TRINIDAD       MOCLDY    64  37  36 S29G36    29.83R
$$

COZ042>045-048>051-090-091-230500-
...NORTHEAST COLORADO...

CITY           SKY/WX    TMP DP  RH WIND       PRES   REMARKS
GREELEY ARPT   CLOUDY    61  37  41 S5        29.67S
AKRON          MOCLDY    62  39  42 S21G26    29.70S
BURLINGTON     PTCLDY    60  43  53 SE17      29.76F
WRAY           CLOUDY    67  41  39 SE18G26   29.70R
STERLING       NOT AVBL
HOLYOKE        NOT AVBL
FORT MORGAN    NOT AVBL
$$

COZ086-089-092>099-230500-
...SOUTHEAST COLORADO...

CITY           SKY/WX    TMP DP  RH WIND       PRES   REMARKS
PUEBLO         MOCLDY    65  38  36 S9        29.71S
LA JUNTA       MOCLDY    67  42  40 S8        29.74F
LAMAR          CLOUDY    60  46  59 S7        29.74R
SPRINGFIELD      N/A     61  43  51 S18       29.82R
$$



USA.gov is the U.S. government's official web portal to all federal, state and local government web resources and services.